CAPE
0 0 0 0 0 0 0 0 0 0 0 0 0 0 0 0 0 0 0 0 0 0 0 0 0 0 16 6 58 85 90 74 61 42 54 32 0 0 0 0 0 0 0
0 0 0 0 0 0 0 0 0 0 0 0 0 0 0 0 0 0 0 0 0 0 0 0 0 2 42 16 30 66 93 87 62 24 5 0 0 0 0 0 0 0 0
0 0 0 0 0 0 0 0 0 0 0 0 0 0 0 0 0 0 0 0 0 0 0 0 12 62 59 75 30 46 5 76 3 16 5 0 0 0 0 0 0 0 0
0 0 0 0 0 0 0 0 0 0 0 0 0 0 2 2 1 3 0 0 0 0 0 0 108 176 179 164 110 24 24 29 9 8 23 43 11 6 0 0 0 0 0
0 0 0 0 0 0 0 0 0 0 0 0 0 1 0 3 2 2 14 9 257 112 177 229 296 215 168 110 39 2 4 8 16 15 36 4 1 4 11 2 0 0 0
0 0 0 0 0 0 0 0 0 0 0 0 0 0 0 0 0 3 12 91 89 31 22 15 0 0 0 0 0 0 0 0 0 0 7 11 14 7 15 7 17 3 0
0 0 0 0 0 0 0 0 0 0 0 0 0 0 0 1 0 0 1 21 19 11 6 1 0 0 0 0 0 0 0 0 0 0 0 0 1 2 2 1 3 3 0
0 0 0 0 0 0 0 0 0 0 0 0 0 0 0 0 1 0 0 1 2 3 2 2 0 0 0 0 0 0 0 0 0 0 0 0 0 0 2 3 3 0 0
0 0 0 0 0 0 0 0 0 0 0 0 0 0 0 0 1 0 0 0 0 0 0 0 0 0 0 0 0 0 0 0 0 0 0 0 0 0 0 0 1 3 3
0 0 0 0 0 0 0 0 0 0 0 0 0 0 0 0 0 0 0 0 0 0 0 0 0 0 0 0 0 0 0 0 0 0 0 0 0 0 0 0 0 0 0
0 0 0 0 0 0 0 0 0 0 0 0 0 0 0 0 0 0 0 0 0 0 0 0 0 0 0 0 0 0 0 0 0 0 0 0 0 0 0 0 0 0 0
0 0 0 0 0 0 0 0 0 0 0 0 0 0 0 0 0 0 0 0 0 0 0 0 0 0 0 0 0 0 0 0 0 0 0 0 0 0 0 0 0 0 0
0 0 0 0 0 0 0 0 0 0 0 0 0 0 0 0 0 0 0 0 0 0 0 0 0 0 0 0 0 0 0 0 0 0 0 0 0 0 0 0 0 0 0
0 0 0 0 0 0 0 0 0 0 0 0 0 0 0 0 0 0 0 0 0 0 0 0 0 0 0 0 0 0 0 0 0 0 0 0 0 0 0 0 0 0 0
0 0 0 0 0 0 0 0 0 0 0 0 0 0 0 0 0 0 0 0 0 0 0 0 0 0 0 0 0 0 0 0 0 0 0 0 0 0 1 0 0 0 0
0 0 0 0 0 0 0 0 0 0 0 0 0 0 0 0 0 0 0 0 0 0 0 0 0 0 0 0 0 0 0 0 0 0 0 0 0 0 0 1 1 0 1
0 0 0 0 0 0 0 0 0 0 0 0 0 0 0 0 0 0 0 0 0 0 0 0 0 0 0 0 0 0 0 0 0 0 0 0 0 0 0 0 0 1 0
0 0 0 0 0 0 0 0 0 0 0 0 0 0 0 0 0 0 0 0 0 0 0 0 0 0 0 0 0 0 0 0 0 0 0 0 0 0 1 0 0 0 0
0 0 0 0 0 0 0 0 0 0 0 0 0 0 0 0 0 0 0 0 0 0 0 0 0 0 0 0 0 0 0 0 0 0 0 0 0 0 0 0 0 0 0
0 0 0 0 0 0 0 0 0 0 0 0 0 0 0 0 0 0 0 0 0 0 0 0 0 0 0 0 0 0 0 0 0 0 0 0 0 1 0 0 0 0 0
0 0 0 0 0 0 0 0 0 0 0 0 0 0 0 0 0 0 0 0 0 0 0 0 0 0 0 0 0 0 0 0 0 0 0 0 1 0 2 2 0 0 0
0 0 0 0 0 0 0 0 0 0 0 0 0 0 0 0 0 0 0 0 0 0 0 0 0 0 0 0 0 0 0 0 0 0 0 0 2 2 0 0 2 1 1
0 0 0 0 0 0 0 0 0 0 0 0 0 0 0 0 0 0 0 0 0 0 0 0 0 0 0 0 0 0 0 1 0 0 0 1 0 0 0 0 0 0 0
0 0 0 0 0 0 0 0 0 0 0 0 0 0 0 0 0 0 0 0 0 0 0 0 0 0 0 0 0 0 0 0 1 0 0 0 0 0 0 0 0 0 0
0 0 0 0 0 0 0 0 0 0 0 0 0 0 0 0 0 0 0 0 0 0 0 0 0 0 0 0 0 0 0 0 0 0 0 0 0 0 0 0 0 0 0
0 0 0 0 0 0 0 0 0 0 0 0 0 0 0 0 0 0 0 0 0 0 0 0 0 0 0 0 1 0 0 1 0 0 0 0 1 1 0 1 1 0 1
CIN
-0 -0 -0 -0 -0 -0 -0 -0 -0 -0 -0 -0 -0 -0 -0 -0 -0 -0 -0 -0 -0 -0 -0 -0 -0 -0 -34 -63 -63 -78 -46 -44 -63 -41 -54 -69 -0 -0 -0 -0 -0 -0 -0
-0 -0 -0 -0 -0 -0 -0 -0 -0 -0 -0 -0 -0 -0 -0 -0 -0 -0 -0 -0 -0 -0 -0 -0 -0 -18 -66 -60 -66 -48 -25 -42 -55 -28 -49 -0 -0 -0 -0 -0 -0 -0 -0
-0 -0 -0 -0 -0 -0 -0 -0 -0 -0 -0 -0 -0 -0 -0 -0 -0 -0 -0 -0 -0 -0 -0 -0 -20 -48 -50 -61 -75 -83 -10 -18 -56 -33 -10 -0 -0 -0 -0 -0 -0 -0 -0
-0 -0 -0 -0 -0 -0 -0 -0 -0 -0 -0 -0 -0 -0 -0 -0 -9 -25 -1 -0 -0 -0 -0 -0 -20 -25 -40 -42 -43 -77 -56 -86 -22 -20 -24 -24 -6 -3 -0 -0 -0 -0 -0
-0 -0 -0 -0 -0 -0 -0 -0 -0 -0 -0 -0 -0 -0 -0 -0 -4 -28 -37 -62 -12 -36 -25 -12 -1 -7 -27 -44 -61 -70 -51 -36 -26 -15 -4 -29 -6 -8 -1 -2 -0 -0 -0
-0 -0 -0 -0 -0 -0 -0 -0 -0 -0 -0 -0 -0 -0 -0 -0 -0 -18 -22 -31 -43 -87 -106 -72 -28 -0 -0 -0 -0 -0 -0 -0 -0 -0 -7 -15 -5 -18 -16 -0 -0 -0 -0
-0 -0 -0 -0 -0 -0 -0 -0 -0 -0 -0 -0 -0 -0 -0 -0 -0 -0 -12 -51 -74 -98 -136 -71 -0 -0 -0 -0 -0 -0 -0 -0 -0 -0 -0 -0 -0 -0 -0 -3 -12 -0 -0
-0 -0 -0 -0 -0 -0 -0 -0 -0 -0 -0 -0 -0 -0 -0 -0 -0 -0 -0 -0 -0 -0 -0 -0 -0 -0 -0 -0 -0 -0 -0 -0 -0 -0 -0 -0 -0 -0 -0 -0 -0 -0 -0
-0 -0 -0 -0 -0 -0 -0 -0 -0 -0 -0 -0 -0 -0 -0 -0 -0 -0 -0 -0 -0 -0 -0 -0 -0 -0 -0 -0 -0 -0 -0 -0 -0 -0 -0 -0 -0 -0 -0 -0 -0 -0 -0
-0 -0 -0 -0 -0 -0 -0 -0 -0 -0 -0 -0 -0 -0 -0 -0 -0 -0 -0 -0 -0 -0 -0 -0 -0 -0 -0 -0 -0 -0 -0 -0 -0 -0 -0 -0 -0 -0 -0 -0 -0 -0 -0
-0 -0 -0 -0 -0 -0 -0 -0 -0 -0 -0 -0 -0 -0 -0 -0 -0 -0 -0 -0 -0 -0 -0 -0 -0 -0 -0 -0 -0 -0 -0 -0 -0 -0 -0 -0 -0 -0 -0 -0 -0 -0 -0
-0 -0 -0 -0 -0 -0 -0 -0 -0 -0 -0 -0 -0 -0 -0 -0 -0 -0 -0 -0 -0 -0 -0 -0 -0 -0 -0 -0 -0 -0 -0 -0 -0 -0 -0 -0 -0 -0 -0 -0 -0 -0 -0
-0 -0 -0 -0 -0 -0 -0 -0 -0 -0 -0 -0 -0 -0 -0 -0 -0 -0 -0 -0 -0 -0 -0 -0 -0 -0 -0 -0 -0 -0 -0 -0 -0 -0 -0 -0 -0 -0 -0 -0 -0 -0 -0
-0 -0 -0 -0 -0 -0 -0 -0 -0 -0 -0 -0 -0 -0 -0 -0 -0 -0 -0 -0 -0 -0 -0 -0 -0 -0 -0 -0 -0 -0 -0 -0 -0 -0 -0 -0 -0 -0 -0 -0 -0 -0 -0
-0 -0 -0 -0 -0 -0 -0 -0 -0 -0 -0 -0 -0 -0 -0 -0 -0 -0 -0 -0 -0 -0 -0 -0 -0 -0 -0 -0 -0 -0 -0 -0 -0 -0 -0 -0 -0 -0 -0 -0 -0 -0 -0
-0 -0 -0 -0 -0 -0 -0 -0 -0 -0 -0 -0 -0 -0 -0 -0 -0 -0 -0 -0 -0 -0 -0 -0 -0 -0 -0 -0 -0 -0 -0 -0 -0 -0 -0 -0 -0 -0 -0 -0 -0 -0 -1
-0 -0 -0 -0 -0 -0 -0 -0 -0 -0 -0 -0 -0 -0 -0 -0 -0 -0 -0 -0 -0 -0 -0 -0 -0 -0 -0 -0 -0 -0 -0 -0 -0 -0 -0 -0 -0 -0 -0 -0 -0 -1 -0
-0 -0 -0 -0 -0 -0 -0 -0 -0 -0 -0 -0 -0 -0 -0 -0 -0 -0 -0 -0 -0 -0 -0 -0 -0 -0 -0 -0 -0 -0 -0 -0 -0 -0 -0 -0 -0 -0 -0 -0 -0 -0 -0
-0 -0 -0 -0 -0 -0 -0 -0 -0 -0 -0 -0 -0 -0 -0 -0 -0 -0 -0 -0 -0 -0 -0 -0 -0 -0 -0 -0 -0 -0 -0 -0 -0 -0 -0 -0 -0 -0 -0 -0 -0 -0 -0
-0 -0 -0 -0 -0 -0 -0 -0 -0 -0 -0 -0 -0 -0 -0 -0 -0 -0 -0 -0 -0 -0 -0 -0 -0 -0 -0 -0 -0 -0 -0 -0 -0 -0 -0 -0 -0 -0 -0 -0 -0 -0 -0
-0 -0 -0 -0 -0 -0 -0 -0 -0 -0 -0 -0 -0 -0 -0 -0 -0 -0 -0 -0 -0 -0 -0 -0 -0 -0 -0 -0 -0 -0 -0 -0 -0 -0 -0 -0 -0 -1 -0 -0 -0 -0 -0
-0 -0 -0 -0 -0 -0 -0 -0 -0 -0 -0 -0 -0 -0 -0 -0 -0 -0 -0 -0 -0 -0 -0 -0 -0 -0 -0 -0 -0 -0 -0 -0 -0 -0 -0 -0 -0 -0 -0 -0 -0 -0 -0
-0 -0 -0 -0 -0 -0 -0 -0 -0 -0 -0 -0 -0 -0 -0 -0 -0 -0 -0 -0 -0 -0 -0 -0 -0 -0 -0 -0 -0 -0 -0 -0 -0 -0 -0 -0 -0 -0 -0 -0 -0 -0 -0
-0 -0 -0 -0 -0 -0 -0 -0 -0 -0 -0 -0 -0 -0 -0 -0 -0 -0 -0 -0 -0 -0 -0 -0 -0 -0 -0 -0 -0 -0 -0 -0 -2 -0 -0 -0 -0 -0 -0 -0 -0 -0 -0
-0 -0 -0 -0 -0 -0 -0 -0 -0 -0 -0 -0 -0 -0 -0 -0 -0 -0 -0 -0 -0 -0 -0 -0 -0 -0 -0 -0 -0 -0 -0 -0 -0 -0 -0 -0 -0 -0 -0 -0 -0 -0 -0
-0 -0 -0 -0 -0 -0 -0 -0 -0 -0 -0 -0 -0 -0 -0 -0 -0 -0 -0 -0 -0 -0 -0 -0 -0 -0 -0 -0 -0 -0 -0 -0 -0 -0 -0 -0 -0 -0 -0 -0 -0 -0 -0
Wind_Speed
20 20 19 23 26 28 32 34 39 39 39 38 37 34 33 35 37 37 38 39 38 36 35 35 37 35 35 36 35 35 33 29 24 24 25 27 27 28 27 28 30 31 31
16 18 20 24 28 28 29 33 36 36 37 35 34 32 32 31 33 35 37 36 36 34 34 35 35 36 35 34 35 36 35 28 25 26 26 32 29 26 26 25 26 30 31
18 19 23 25 22 22 25 23 26 27 26 27 32 32 30 31 32 30 31 31 31 31 32 33 32 31 32 36 33 33 26 25 24 24 25 28 29 30 26 27 30 32 34
4 6 2 5 15 19 24 26 27 28 29 29 30 30 31 33 27 25 29 30 27 28 29 29 28 27 26 27 28 28 29 24 25 24 25 25 28 33 38 31 35 37 38
4 1 5 11 16 20 23 28 29 31 31 28 28 28 28 28 23 19 23 24 20 21 22 22 21 20 19 18 20 21 23 25 25 26 25 26 29 31 35 44 40 37 40
4 5 7 12 15 19 21 26 29 30 31 29 27 28 28 26 22 18 25 20 18 17 16 15 16 16 16 17 19 21 24 24 25 25 28 28 30 32 34 38 40 45 42
6 8 10 14 15 17 18 22 26 28 29 29 26 26 26 23 20 19 16 17 16 15 14 12 12 14 14 15 18 21 23 26 27 29 30 29 29 32 35 39 41 41 42
9 9 11 12 12 14 16 19 22 25 26 26 26 24 23 22 20 19 22 18 16 14 15 13 13 14 15 15 16 18 19 22 24 25 26 28 27 29 31 35 39 41 38
14 13 12 12 13 14 16 17 19 22 24 23 24 23 23 22 20 19 18 20 8 13 14 13 13 13 15 16 18 20 23 22 22 24 25 27 30 31 29 30 33 34 35
20 19 16 13 12 13 15 17 17 18 21 22 22 21 21 21 20 20 18 15 14 14 14 11 14 15 16 16 17 20 21 23 23 24 23 26 27 26 27 28 29 31 33
24 19 21 15 12 13 13 13 14 15 16 17 18 19 19 19 19 18 17 17 15 14 14 15 16 17 16 17 17 18 20 22 23 25 25 26 26 25 26 28 30 29 30
18 16 15 13 9 7 6 5 7 7 8 9 12 14 17 18 18 17 16 14 13 12 12 11 10 15 15 19 19 18 19 20 21 22 23 24 24 26 27 28 26 26 28
10 9 10 6 4 2 2 1 3 3 6 7 9 10 11 13 15 16 15 14 13 12 11 11 10 13 17 19 18 17 18 20 21 22 23 25 27 28 28 27 28 29 31
17 7 6 6 4 3 2 1 1 3 5 6 7 8 9 10 11 12 13 13 13 13 13 13 13 12 13 14 15 15 16 18 20 23 24 24 26 27 27 27 29 30 32
21 5 6 8 5 5 3 2 1 1 3 4 5 5 7 8 9 11 11 12 11 11 11 12 12 13 12 13 14 15 16 18 21 21 21 23 24 25 27 29 30 31 33
16 9 16 23 22 12 5 5 5 3 2 1 2 4 5 7 7 8 9 10 11 11 11 11 11 11 11 11 11 12 15 17 20 21 22 24 25 28 29 30 31 33 36
11 11 19 28 27 20 10 6 5 3 3 2 2 3 4 6 7 8 9 9 9 10 11 12 12 12 12 13 14 14 16 18 20 22 24 27 28 30 31 33 34 36 37
28 22 22 32 34 30 19 12 8 7 7 6 6 6 6 7 8 9 9 10 11 11 10 12 14 14 15 16 16 17 20 22 23 24 27 29 31 32 34 36 37 37 38
42 27 29 34 34 31 26 18 13 11 11 10 9 9 8 8 9 9 11 12 13 13 14 14 15 17 18 18 19 20 22 23 25 26 29 31 32 33 36 37 38 38 38
38 33 35 37 34 32 27 21 17 14 14 11 11 10 10 9 10 12 13 14 14 15 16 17 15 17 19 20 21 22 22 24 25 27 29 32 33 34 36 37 37 39 38
42 35 35 35 33 30 26 24 20 18 15 14 12 12 12 12 12 12 14 15 16 15 17 17 17 17 19 22 22 22 23 25 28 31 32 32 33 35 36 36 35 36 39
45 41 41 37 33 28 25 24 22 20 17 16 15 15 14 13 13 14 15 16 16 16 17 18 18 18 18 19 21 22 23 26 29 31 32 32 34 35 35 34 34 35 36
44 44 41 39 35 29 26 27 26 22 19 18 18 17 16 16 15 15 15 15 15 17 17 17 18 18 18 19 20 22 24 27 29 29 31 32 34 34 33 31 33 33 34
38 39 38 36 37 33 28 27 28 24 21 21 20 18 17 16 16 16 16 16 15 15 17 18 19 19 18 19 20 21 24 26 27 28 28 30 30 30 29 29 29 31 32
43 41 39 38 38 35 29 26 24 21 21 20 19 18 17 16 16 17 15 14 15 15 17 17 17 18 19 19 19 22 24 25 26 28 28 30 30 31 29 29 30 31 32
47 45 43 43 42 36 33 31 27 25 25 24 22 19 18 17 17 16 16 16 16 15 16 17 16 16 18 18 20 22 23 25 26 27 29 29 29 29 28 29 30 32 32
Wind_Direction
360 2 6 359 358 357 351 352 344 345 340 339 341 341 335 322 310 300 294 288 284 278 276 275 271 270 270 270 272 273 273 273 279 283 286 288 291 291 292 295 295 296 298
22 13 8 2 360 5 8 2 355 355 353 349 347 346 342 336 322 308 295 289 282 278 274 274 272 268 268 272 272 271 270 270 274 279 285 286 291 295 296 297 300 300 304
9 13 2 4 17 19 15 16 13 10 11 8 358 352 349 344 335 320 302 292 284 279 277 275 272 271 270 267 271 267 274 267 276 281 283 286 284 293 297 298 301 302 304
128 205 206 34 23 17 13 11 12 9 9 8 6 5 358 353 351 338 311 294 289 282 278 277 274 273 274 272 270 269 274 280 277 287 285 281 289 289 289 298 299 303 303
161 103 34 23 18 13 11 9 10 9 10 13 15 14 10 8 9 7 337 307 302 296 288 280 277 277 277 279 273 273 276 281 280 283 286 288 293 293 292 292 299 303 303
60 34 20 15 13 12 12 11 12 11 13 17 20 20 20 21 29 20 324 331 318 309 305 293 285 281 279 282 280 280 277 284 287 284 298 295 294 295 297 298 302 300 302
31 18 12 11 13 14 15 15 14 15 17 20 25 27 31 36 50 53 47 292 319 316 315 308 295 288 289 290 290 289 287 286 292 289 291 296 300 298 298 299 303 305 305
20 9 8 10 15 17 17 18 18 19 22 25 29 34 40 48 59 67 56 15 327 288 295 312 310 299 300 299 302 299 298 298 299 293 297 295 305 305 306 304 304 306 309
17 12 10 11 12 14 16 18 19 20 25 31 35 40 47 56 68 81 91 60 157 267 293 312 317 319 320 309 309 301 295 300 298 295 301 299 303 304 310 311 311 310 310
7 7 7 6 10 12 14 16 19 21 24 32 38 44 52 60 72 81 96 116 147 191 225 275 314 299 321 313 316 310 302 292 298 301 312 310 311 317 318 318 314 309 308
359 357 358 1 2 7 12 18 23 27 30 36 39 45 53 61 70 82 94 98 117 142 171 214 270 314 329 331 341 342 307 295 298 301 311 312 316 319 319 319 317 312 311
341 348 352 355 357 3 19 35 39 51 60 64 62 59 55 58 65 73 87 100 114 125 119 111 82 1 354 334 339 335 314 304 301 307 314 314 318 320 325 326 325 320 317
308 337 353 345 336 274 218 80 79 94 72 74 75 75 79 77 69 67 72 79 89 97 108 116 83 23 349 344 350 353 331 317 312 312 314 313 316 318 321 327 325 322 317
264 281 296 337 322 271 242 232 114 74 72 77 78 81 80 78 80 80 76 73 70 70 69 68 64 68 55 24 13 8 360 344 330 318 318 323 323 325 328 328 326 323 319
263 332 353 356 324 328 280 252 218 93 107 104 101 94 87 83 78 72 69 70 74 76 73 65 51 39 32 20 10 3 355 346 339 336 335 334 334 333 330 327 325 323 321
257 267 352 349 349 341 279 235 220 201 149 116 94 81 70 64 66 74 75 64 55 49 46 44 42 39 37 32 25 14 360 350 344 341 339 336 334 331 330 329 327 325 321
283 317 340 340 343 344 328 265 255 294 291 304 338 7 21 26 29 34 37 43 44 38 27 23 21 19 15 9 4 2 355 348 344 341 338 335 333 331 328 327 325 323 321
333 329 330 331 331 332 337 325 305 294 296 298 306 318 332 344 356 1 2 5 7 11 15 6 358 356 355 352 351 348 343 339 338 337 334 333 332 330 328 325 324 323 322
316 321 321 322 325 326 328 324 313 298 294 291 290 297 305 317 328 334 341 344 346 348 348 352 346 341 339 339 340 339 337 337 336 335 334 332 332 331 328 327 326 327 326
321 316 315 317 319 321 323 320 311 298 289 282 284 293 298 304 313 322 328 333 337 336 338 338 342 340 335 335 335 336 337 338 337 337 335 335 333 332 331 331 331 328 330
316 319 315 315 315 318 320 317 312 298 283 292 294 293 295 298 305 314 319 323 326 331 331 333 336 339 336 331 334 336 337 337 336 335 335 336 335 333 333 334 334 333 332
310 313 314 314 314 314 314 314 311 305 298 293 294 291 290 295 300 304 311 316 319 323 326 327 329 332 335 336 333 335 337 337 336 335 336 336 335 335 336 339 339 337 337
309 309 311 312 312 309 307 307 309 307 299 292 291 290 291 292 294 297 303 309 313 316 320 323 325 328 331 334 335 335 336 337 337 338 337 337 337 339 342 344 343 342 341
314 313 313 310 311 309 304 302 307 304 299 293 289 289 287 286 288 292 298 302 307 312 316 318 321 325 329 331 333 335 337 338 339 340 341 340 342 346 347 348 348 347 345
312 311 309 307 307 308 305 304 304 301 297 292 288 284 281 279 283 288 291 296 304 309 313 316 320 323 325 329 333 335 337 339 340 340 342 340 344 346 349 351 350 349 347
312 310 307 305 304 303 302 303 302 300 295 292 289 282 280 280 281 283 291 299 304 308 313 320 323 325 327 331 334 336 338 340 341 341 340 342 345 348 349 351 350 348 347